This is the latest recevied weather packets stored in our database for station/object KB4RFE. If no packets are shown the sender has not sent any weather packets the latest 10 day(s).
| Time | Temp. | Humidity | Pressure | Rain* | Wind** | Luminosity | Snow |
|---|---|---|---|---|---|---|---|
| 1777243579 | 21.67° C | 82% | 1015.8 hPa | 0 mm | - | 74 W/m² | - |
| 1777243275 | 21.67° C | 84% | 1015.7 hPa | 0 mm | - | 79 W/m² | - |
| 1777242971 | 21.67° C | 84% | 1015.6 hPa | 0 mm | - | 84 W/m² | - |
| 1777242669 | 21.11° C | 85% | 1015.8 hPa | 0.51 mm | - | 115 W/m² | - |
| 1777242364 | 21.11° C | 84% | 1015.6 hPa | 0.51 mm | - | 88 W/m² | - |
| 1777242061 | 21.11° C | 85% | 1015.6 hPa | 0 mm | - | 105 W/m² | - |
| 1777241759 | 21.11° C | 85% | 1015.8 hPa | 0 mm | - | 137 W/m² | - |
| 1777241456 | 21.11° C | 85% | 1015.7 hPa | 0 mm | - | 127 W/m² | - |
| 1777241154 | 21.11° C | 87% | 1015.6 hPa | 0 mm | - | 137 W/m² | - |
| 1777240851 | 21.11° C | 87% | 1015.5 hPa | 0 mm | - | 172 W/m² | - |
| 1777240549 | 21.11° C | 87% | 1015.5 hPa | 0 mm | - | 122 W/m² | - |
| 1777240246 | 21.11° C | 87% | 1015.2 hPa | 0 mm | - | 112 W/m² | - |
| 1777239944 | 21.11° C | 89% | 1015.3 hPa | 0 mm | - | 203 W/m² | - |
| 1777239641 | 20.56° C | 90% | 1015.3 hPa | 0 mm | - | 231 W/m² | - |
| 1777239337 | 20.56° C | 91% | 1015.2 hPa | 0 mm | - | 245 W/m² | - |
| 1777239034 | 20.56° C | 91% | 1015.2 hPa | 0.51 mm | - | 99 W/m² | - |
| 1777238732 | 20° C | 91% | 1015.3 hPa | 0.51 mm | - | 78 W/m² | - |
| 1777238428 | 20° C | 90% | 1015.2 hPa | 3.05 mm | - | 67 W/m² | - |
| 1777238124 | 20.56° C | 89% | 1015.3 hPa | 3.56 mm | - | 37 W/m² | - |
| 1777237822 | 20.56° C | 90% | 1015.1 hPa | 0.51 mm | - | 31 W/m² | - |
| 1777237518 | 20.56° C | 89% | 1015 hPa | 0.51 mm | - | 29 W/m² | - |
| 1777237216 | 21.11° C | 88% | 1015.1 hPa | 1.27 mm | - | 44 W/m² | - |
| 1777236913 | 21.67° C | 86% | 1014.9 hPa | 1.78 mm | - | 135 W/m² | - |
| 1777236610 | 21.67° C | 85% | 1014.8 hPa | 1.78 mm | - | 168 W/m² | - |
| 1777236310 | 22.22° C | 83% | 1014.7 hPa | 0.51 mm | - | 169 W/m² | - |
* Rain latest hour (hover to see other rain measurements)
** Current wind speed in m/s (hover to see current wind gust speed)